Weather History for Minot, ND

Change the Weather History Date:

Wednesday, October 12, 2011

  Actual Average Record
Temperature  
Mean Temperature 54 °F 46 °F  
Max Temperature 64 °F 57 °F 87 °F (1934)
Min Temperature 43 °F 35 °F 3 °F (1917)
Degree Days  
Heating Degree Days 11 19  
Month to date heating degree days 83 196  
Since 1 July heating degree days 255 516  
Cooling Degree Days 0 0  
Month to date cooling degree days 9 0  
Year to date cooling degree days 508 444  
Growing Degree Days 4 (Base 50)    
Moisture  
Dew Point 45 °F    
Average Humidity 71    
Maximum Humidity 93    
Minimum Humidity 48    
Precipitation  
Precipitation 0.02 in 0.04 in 0.75 in (2008)
Month to date precipitation 0.66 0.53  
Year to date precipitation 21.74 15.43  
Sea Level Pressure  
Sea Level Pressure 29.73 in    
Wind  
Wind Speed 11 mph (West)    
Max Wind Speed 23 mph    
Max Gust Speed 28 mph    
Visibility 10 miles    
Events Rain    
T = Trace of Precipitation, MM = Missing Value Source: NWS Daily Summary

Daily Weather History Graph

Daily Weather History Graph

Search for Another Location

Airport:

Trip Planner

Search our weather history database for the weather conditions in past years. The results will help you decide how hot, cold, wet, or windy it might be!

Date:

Astronomy

Oct. 12, 2011 Rise Set
Actual Time 7:59 AM CDT 7:02 PM CDT
Civil Twilight 7:28 AM CDT 7:33 PM CDT
Nautical Twilight 6:52 AM CDT 8:09 PM CDT
Astronomical Twilight 6:16 AM CDT 8:45 PM CDT
Moon 6:55 PM CDT (10/12) 8:44 AM CDT (10/12)
Length of Visible Light 12h 05m
Length of Day
11h 02m
Full, 100% of the Moon is Illuminated
Oct 12
Full
Oct 19
Last Quarter
Oct 26
New
Nov 2
First Quarter
Nov 10
Full

Hourly Weather History & Observations

Time (CDT) Temp. Windchill Dew Point Humidity Pressure Visibility Wind Dir Wind Speed Gust Speed Precip Events Conditions
12:54 AM 55.9 °F - 45.0 °F 67% 29.61 in 10.0 mi SW 9.2 mph - N/A   Clear
1:54 AM 53.1 °F - 45.0 °F 74% 29.62 in 10.0 mi SW 9.2 mph - N/A   Clear
2:54 AM 53.1 °F - 45.0 °F 74% 29.63 in 10.0 mi SW 9.2 mph - N/A   Clear
3:54 AM 57.0 °F - 43.0 °F 59% 29.63 in 10.0 mi WSW 12.7 mph - N/A   Scattered Clouds
4:54 AM 55.0 °F - 46.0 °F 72% 29.66 in 6.0 mi West 23.0 mph - 0.01 in Rain Light Rain
5:54 AM 52.0 °F - 45.0 °F 77% 29.67 in 10.0 mi WSW 9.2 mph - 0.01 in   Mostly Cloudy
6:54 AM 50.0 °F - 44.1 °F 80% 29.68 in 10.0 mi WSW 3.5 mph - N/A   Scattered Clouds
7:54 AM 48.9 °F - 44.1 °F 83% 29.70 in 10.0 mi SW 10.4 mph - N/A   Mostly Cloudy
8:54 AM 51.1 °F - 44.1 °F 77% 29.70 in 10.0 mi WSW 13.8 mph - N/A   Mostly Cloudy
9:54 AM 54.0 °F - 45.0 °F 72% 29.71 in 10.0 mi WSW 10.4 mph - N/A   Scattered Clouds
10:54 AM 55.9 °F - 45.0 °F 67% 29.71 in 10.0 mi WSW 10.4 mph - N/A   Overcast
11:54 AM 60.1 °F - 45.0 °F 57% 29.72 in 10.0 mi West 15.0 mph - N/A   Partly Cloudy
12:54 PM 62.1 °F - 46.0 °F 56% 29.74 in 10.0 mi West 11.5 mph - N/A   Clear
1:54 PM 64.0 °F - 46.9 °F 54% 29.74 in 10.0 mi WSW 12.7 mph - N/A   Clear
2:54 PM 64.0 °F - 45.0 °F 50% 29.74 in 10.0 mi West 15.0 mph - N/A   Partly Cloudy
3:54 PM 62.6 °F - 46.4 °F 55% 29.74 in 10.0 mi WNW 16.1 mph 21.9 mph N/A   Clear
4:54 PM 63.0 °F - 46.9 °F 56% 29.75 in 10.0 mi WNW 13.8 mph - N/A   Clear
5:54 PM 60.1 °F - 46.0 °F 60% 29.78 in 10.0 mi WNW 16.1 mph - N/A   Clear
6:54 PM 55.9 °F - 45.0 °F 67% 29.83 in 10.0 mi NW 11.5 mph - N/A   Mostly Cloudy
7:54 PM 51.1 °F - 46.9 °F 86% 29.84 in 10.0 mi West 8.1 mph - 0.00 in   Clear
8:54 PM 50.0 °F - 46.0 °F 86% 29.83 in 10.0 mi WNW 8.1 mph - N/A   Clear
9:54 PM 46.9 °F - 44.1 °F 90% 29.84 in 10.0 mi NW 5.8 mph - N/A   Clear
10:54 PM 44.1 °F 41.5 °F 41.0 °F 89% 29.85 in 10.0 mi NW 4.6 mph - N/A   Clear
11:54 PM 45.0 °F 42.6 °F 43.0 °F 93% 29.84 in 10.0 mi West 4.6 mph - N/A   Clear